Location: Potawatomi Wildlife Park
(41.2308°N, 86.1050°W)
Time: 11:40:58
(UTC-04:00)

Daily predictions for brighter satellites

Satellite Brightness Start Highest point End
(mag) Time Altitude Azimuth Time Altitude Azimuth Time Altitude Azimuth
CZ-4 DEB 3.2 21:32:18 10° S 21:35:30 64° WSW 21:38:43 10° NNW
H-2A R/B 2.4 21:32:45 10° SSE 21:36:49 49° ENE 21:41:00 10° N
Meteor 2-4 Rocket 4.2 21:32:04 10° SSE 21:37:34 45° E 21:43:09 10° NNE
Cosmos 1331 Rocket 4.4 21:33:20 10° N 21:38:25 49° ENE 21:43:25 10° SE
CZ-2C R/B 0.4 21:37:03 10° SSE 21:39:21 68° ENE 21:41:40 10° N
Cosmos 2333 Rocket 2.8 21:35:55 10° SW 21:41:31 65° WNW 21:47:10 10° NNE
Resurs 01 Rocket 4.4 21:39:19 10° SW 21:42:07 16° W 21:44:56 10° NW
SPOT 5 3.7 21:38:55 10° SE 21:42:45 29° ENE 21:46:30 10° N
Cosmos 2297 3.9 21:39:49 10° NNW 21:45:31 65° ENE 21:51:11 10° SSE
Cosmos 2098 Rocket 3.6 21:47:10 10° NNW 21:50:18 46° W 21:54:03 10° SSW
H-2A R/B 3.8 21:47:47 10° S 21:51:35 48° W 21:55:27 10° NNW
CZ-4 SHROUD 4.3 21:49:26 10° SE 21:52:11 30° ENE 21:55:00 10° N
APEX 4.4 21:49:24 10° N 21:52:59 34° ENE 21:57:11 11° SE
Lacrosse 5 3.8 21:50:16 10° W 21:54:53 34° NW 21:59:31 10° NNE
USA 186 3.6 21:54:27 10° SSW 21:57:01 26° W 21:59:27 10° NW
ATLAS CENTAUR R/B 2.3 21:52:18 10° SW 21:57:14 67° NW 22:02:17 10° NNE
Cosmos 158 Rocket 4.3 21:52:44 10° SSW 21:57:46 72° WNW 22:02:59 10° NNE
SeaSat 1 2.7 21:53:10 10° SE 21:57:59 57° ENE 22:02:50 10° NNW
CZ-4B R/B 4.4 21:55:31 10° NE 21:59:51 28° E 22:04:15 10° SSE
Cosmos 2228 3.3 21:59:40 10° N 22:03:59 51° E 22:07:57 12° SSE
Cosmos 2251 Rocket 3.8 21:58:59 10° SSW 22:04:17 78° WNW 22:09:40 10° NNE
Cosmos 1892 Rocket 3.7 22:01:20 10° S 22:05:45 79° W 22:10:14 10° N
Cosmos 1025 Rocket 3.9 22:01:30 10° SSW 22:05:47 53° W 22:10:06 10° N
BREEZE-M DEB (TANK) 1.7 22:09:16 10° NW 22:11:59 70° SW 22:13:12 22° SE
Tsikada Rocket 4.4 22:07:53 10° SSE 22:13:57 47° E 22:20:02 10° NNE
Atlas Centaur 2 3.9 22:08:33 10° SSW 22:14:46 26° SSE 22:20:37 12° ESE
ALOS 4.1 22:10:49 10° SSW 22:14:53 29° W 22:18:59 10° NW
YAOGAN 6 3.8 22:13:00 17° ESE 22:15:10 29° ENE 22:18:25 10° N
Terra 4.0 22:13:50 10° E 22:15:47 12° ENE 22:17:45 10° NE
Nimbus 7 Rocket 4.4 22:09:49 10° NNE 22:15:50 80° ESE 22:21:44 10° SSW
COSMOS 2455 3.7 22:13:41 10° SSE 22:18:38 27° ESE 22:23:35 10° NE
Cosmos 2237 Rocket 4.0 22:15:39 10° WSW 22:20:46 35° WNW 22:25:56 10° N
ATLAS 3B R/B 4.2 22:18:09 15° SE 22:21:01 18° ESE 22:25:52 10° ENE
Meteor 1-15 Rocket 4.2 22:15:50 10° N 22:21:28 83° E 22:26:45 12° S
Envisat 3.0 22:16:48 11° SSE 22:21:40 86° ENE 22:26:47 10° NNW
MetOp-A 4.3 22:17:22 15° SSE 22:21:45 59° ENE 22:27:01 10° N
ERS-1 Rocket 3.9 22:18:34 10° S 22:23:23 47° W 22:28:14 10° NNW
Cosmos 1939 Rocket 3.2 22:19:36 10° S 22:23:44 67° WSW 22:27:54 10° NNW
Cosmos 2285 Rocket 4.1 22:17:30 10° NNW 22:23:50 81° WSW 22:29:40 13° SSE
GRACE-1 4.0 22:23:55 10° N 22:26:46 57° E 22:28:09 26° SSE
GRACE-2 4.0 22:24:22 10° N 22:27:13 58° E 22:28:35 26° SSE
Cosmos 2278 Rocket 3.9 22:22:55 10° NW 22:27:45 29° WSW 22:32:33 10° SSW
PSLV R/B 3.3 22:30:19 19° S 22:32:21 70° W 22:35:27 10° NNW
USA 234 3.3 22:27:51 17° SE 22:33:04 86° NE 22:39:40 10° NW
Cosmos 1464 Rocket 4.4 22:32:33 10° NNW 22:38:36 63° W 22:44:39 10° S
Cosmos 2058 Rocket 4.3 22:35:59 10° NNW 22:40:04 39° W 22:44:06 10° SSW
Lacrosse 5 rocket 3.0 22:37:04 10° WSW 22:40:40 35° NW 22:44:28 10° NNE
Cosmos 2369 Rocket 3.5 22:38:12 10° N 22:43:01 28° NE 22:46:13 17° E
Cosmos 1666 3.5 22:42:30 10° NNW 22:46:17 49° W 22:49:17 15° SSW
SL-16 R/B 3.3 22:41:30 10° SW 22:46:56 47° WNW 22:52:24 10° NNE
Abrixas rocket 2.2 22:44:19 10° WNW 22:47:45 79° SSW 22:48:52 40° SE
Aureole 2 Rocket 3.4 22:45:17 10° SSW 22:49:14 55° WNW 22:52:51 10° N
Cosmos 1602 Rocket 3.8 22:45:04 10° SSW 22:49:32 74° W 22:54:02 10° N
ARGOS 3.3 22:48:12 25° SE 22:51:21 62° ENE 22:56:43 10° N
H-2A R/B 3.1 22:50:29 22° ESE 22:52:33 30° ENE 22:56:53 10° N
NOAA 11 4.3 22:52:09 26° SE 22:55:07 61° ENE 23:00:28 10° N
Cosmos 1825 Rocket 4.1 22:54:02 31° SE 22:55:22 40° E 22:59:31 10° NNE
Cosmos 1816 Rocket 4.5 22:50:06 14° S 22:55:35 77° E 23:01:56 10° N
Cosmos 2034 Rocket 4.4 22:49:33 10° NNW 22:55:51 63° W 23:01:31 13° S
UNK 4.4 22:51:52 10° N 22:57:13 72° WNW 23:02:48 10° SSW
Cosmos 1634 Rocket 4.2 22:53:07 10° N 22:59:08 53° ENE 23:02:13 28° SE
Cosmos 1238 4.1 22:58:10 40° S 22:59:13 85° ESE 23:02:16 10° N
Cosmos 1812 Rocket 3.5 22:55:37 10° N 23:00:01 83° W 23:02:13 29° S
SPOT 1/Viking Rocket 3.5 22:57:45 25° SSE 23:00:49 87° WSW 23:06:01 10° NNW
Cosmos 1992 Rocket 4.4 22:56:14 10° N 23:01:19 49° ENE 23:03:30 30° ESE
Timation 1 Rocket 4.5 22:55:44 10° NNW 23:01:44 71° WSW 23:05:16 25° S
USA 245 4.4 22:57:48 22° S 23:02:00 85° WSW 23:07:32 10° NNW
Cosmos 1461 2.9 22:57:53 10° NW 23:02:11 77° WSW 23:03:39 39° SSE
NAVSTAR 52 R/B(PAM-D 4.2 22:58:53 10° W 23:02:50 55° S 23:02:55 55° S
Cosmos 1346 Rocket 3.5 23:10:08 34° E 23:10:08 34° E 23:13:40 10° NNE
Cosmos 1066 Rocket 4.3 23:11:09 31° SSE 23:13:51 62° E 23:19:32 10° NNE
CZ-4 R/B 4.0 23:10:03 10° NNE 23:15:02 82° WNW 23:18:29 21° SSW
DEBRIS 3.7 23:12:00 10° WNW 23:15:02 24° SW 23:15:02 24° SW
Cosmos 1515 3.6 23:13:48 40° SSW 23:15:06 85° W 23:19:00 10° N
Cosmos 1603 3.9 23:09:53 10° SSW 23:15:29 70° WNW 23:21:06 10° NNE
Cosmos 1190 Rocket 4.4 23:14:26 37° SE 23:15:45 44° ESE 23:20:47 10° NNE
Geosat 3.9 23:10:56 10° NNE 23:16:00 82° ESE 23:19:56 17° SSW
SPOT 5 4.5 23:17:32 12° SSW 23:20:48 25° W 23:24:26 10° NW
Cosmos 2279 Rocket 4.3 23:20:03 10° N 23:26:07 50° ENE 23:28:18 35° SE
Spot 4 4.2 23:27:26 40° ESE 23:28:32 49° ENE 23:33:09 10° N
SeaSat 1 4.5 23:32:58 12° SW 23:35:48 19° WSW 23:39:15 10° WNW
Landsat 7 3.8 23:35:43 47° S 23:37:04 78° WSW 23:41:51 10° NNW
Cosmos 1953 Rocket 3.4 23:38:28 57° S 23:39:20 90° W 23:43:47 10° N
Cosmos 1943 3.1 23:39:28 34° SSW 23:42:04 81° ESE 23:47:48 10° NNE
Cosmos 1766 3.3 23:46:12 10° N 23:50:05 72° ENE 23:50:05 72° ENE
Terra 1.8 23:52:00 58° S 23:52:52 77° WSW 23:57:39 10° NNW
Spot 2 4.3 23:49:03 10° NNE 23:53:47 85° WNW 23:54:59 52° SSW
